QPF
0.00 0.00 0.00 0.00 0.00 0.00 0.00 0.00 0.00 0.00 0.00 0.00 0.00 0.00 0.00 0.00 0.00 0.00 0.00 0.00 0.00 0.00 0.00 0.00 0.00 0.00 0.00 0.00 0.00 0.00 0.00 0.00 0.00 0.00 0.00 0.00 0.00 0.00 0.00 0.00 0.00 0.00 0.00 0.00
0.00 0.00 0.00 0.00 0.00 0.00 0.00 0.00 0.00 0.00 0.00 0.00 0.00 0.00 0.00 0.00 0.00 0.00 0.00 0.00 0.00 0.00 0.00 0.00 0.00 0.00 0.00 0.00 0.00 0.00 0.00 0.00 0.00 0.00 0.00 0.00 0.00 0.00 0.00 0.00 0.00 0.00 0.00 0.00
0.00 0.00 0.00 0.00 0.00 0.00 0.00 0.00 0.00 0.00 0.00 0.00 0.00 0.00 0.00 0.00 0.00 0.00 0.00 0.00 0.00 0.00 0.00 0.00 0.00 0.00 0.00 0.00 0.00 0.00 0.00 0.00 0.00 0.00 0.00 0.00 0.00 0.00 0.00 0.00 0.00 0.00 0.00 0.00
0.00 0.00 0.00 0.00 0.00 0.00 0.00 0.00 0.00 0.00 0.00 0.00 0.00 0.00 0.00 0.00 0.00 0.00 0.00 0.00 0.00 0.00 0.00 0.00 0.00 0.00 0.00 0.00 0.00 0.00 0.00 0.00 0.00 0.00 0.00 0.00 0.00 0.00 0.00 0.00 0.00 0.00 0.00 0.00
0.00 0.00 0.00 0.00 0.00 0.00 0.00 0.00 0.00 0.00 0.00 0.00 0.00 0.00 0.00 0.00 0.00 0.00 0.00 0.00 0.00 0.00 0.00 0.00 0.00 0.00 0.00 0.00 0.00 0.00 0.00 0.00 0.00 0.00 0.00 0.00 0.00 0.00 0.00 0.00 0.00 0.00 0.00 0.00
0.00 0.00 0.00 0.00 0.00 0.00 0.00 0.00 0.00 0.00 0.00 0.00 0.00 0.00 0.00 0.00 0.00 0.00 0.00 0.00 0.00 0.00 0.00 0.00 0.00 0.00 0.00 0.00 0.00 0.00 0.00 0.00 0.00 0.00 0.00 0.00 0.00 0.00 0.00 0.00 0.00 0.00 0.00 0.00
0.00 0.00 0.00 0.00 0.00 0.00 0.00 0.00 0.00 0.00 0.00 0.00 0.00 0.00 0.00 0.00 0.00 0.00 0.00 0.00 0.00 0.00 0.00 0.00 0.00 0.00 0.00 0.00 0.00 0.00 0.00 0.00 0.00 0.00 0.00 0.00 0.00 0.00 0.00 0.00 0.00 0.00 0.00 0.00
0.00 0.00 0.00 0.00 0.00 0.00 0.00 0.00 0.00 0.00 0.00 0.00 0.00 0.00 0.00 0.00 0.00 0.00 0.00 0.00 0.00 0.00 0.00 0.00 0.00 0.00 0.00 0.00 0.00 0.00 0.00 0.00 0.00 0.00 0.00 0.00 0.00 0.00 0.00 0.00 0.00 0.00 0.00 0.00
0.00 0.00 0.00 0.00 0.00 0.00 0.00 0.00 0.00 0.00 0.00 0.00 0.00 0.00 0.00 0.00 0.00 0.00 0.00 0.00 0.00 0.00 0.00 0.00 0.00 0.00 0.00 0.00 0.00 0.00 0.00 0.00 0.00 0.00 0.00 0.00 0.00 0.00 0.00 0.00 0.00 0.00 0.00 0.00
0.00 0.00 0.00 0.00 0.00 0.00 0.00 0.00 0.00 0.00 0.00 0.00 0.00 0.00 0.00 0.00 0.00 0.00 0.00 0.00 0.00 0.00 0.00 0.00 0.00 0.00 0.00 0.00 0.00 0.00 0.00 0.00 0.00 0.00 0.00 0.00 0.00 0.00 0.00 0.00 0.00 0.00 0.00 0.00
0.00 0.00 0.00 0.00 0.00 0.00 0.00 0.00 0.00 0.00 0.00 0.00 0.00 0.00 0.00 0.00 0.00 0.00 0.00 0.00 0.00 0.00 0.00 0.00 0.00 0.00 0.00 0.00 0.00 0.00 0.00 0.00 0.00 0.00 0.00 0.00 0.00 0.00 0.00 0.00 0.00 0.00 0.00 0.00
0.00 0.00 0.00 0.00 0.00 0.00 0.00 0.00 0.00 0.00 0.00 0.00 0.00 0.00 0.00 0.00 0.00 0.00 0.00 0.00 0.00 0.00 0.00 0.00 0.00 0.00 0.00 0.00 0.00 0.00 0.00 0.00 0.00 0.00 0.00 0.00 0.00 0.00 0.00 0.00 0.00 0.00 0.00 0.00
0.00 0.00 0.00 0.00 0.00 0.00 0.00 0.00 0.00 0.00 0.00 0.00 0.00 0.00 0.00 0.00 0.00 0.00 0.00 0.00 0.00 0.00 0.00 0.00 0.00 0.00 0.00 0.00 0.00 0.00 0.00 0.00 0.00 0.00 0.00 0.00 0.00 0.00 0.00 0.00 0.00 0.00 0.00 0.00
0.00 0.02 0.00 0.00 0.00 0.00 0.00 0.00 0.00 0.00 0.00 0.00 0.00 0.00 0.00 0.00 0.00 0.00 0.00 0.00 0.00 0.00 0.00 0.00 0.00 0.00 0.00 0.00 0.00 0.00 0.00 0.00 0.00 0.00 0.00 0.00 0.00 0.00 0.00 0.00 0.00 0.00 0.00 0.00
0.01 0.02 0.00 0.00 0.00 0.00 0.00 0.00 0.00 0.00 0.00 0.00 0.00 0.00 0.00 0.00 0.00 0.00 0.00 0.00 0.00 0.00 0.00 0.00 0.00 0.00 0.00 0.00 0.00 0.00 0.00 0.00 0.00 0.00 0.00 0.00 0.00 0.00 0.00 0.00 0.00 0.00 0.00 0.00
0.02 0.03 0.01 0.00 0.00 0.00 0.00 0.02 0.00 0.00 0.00 0.00 0.00 0.00 0.00 0.00 0.00 0.00 0.00 0.00 0.00 0.00 0.00 0.00 0.00 0.00 0.00 0.00 0.00 0.00 0.00 0.00 0.00 0.00 0.00 0.00 0.00 0.00 0.00 0.00 0.00 0.00 0.00 0.00
0.11 0.11 0.08 0.08 0.00 0.01 0.12 0.09 0.00 0.00 0.00 0.00 0.00 0.00 0.00 0.00 0.00 0.00 0.00 0.00 0.00 0.00 0.00 0.00 0.00 0.00 0.00 0.00 0.00 0.00 0.00 0.00 0.00 0.00 0.00 0.00 0.00 0.00 0.00 0.00 0.00 0.00 0.00 0.00
0.08 0.09 0.11 0.15 0.03 0.14 0.06 0.00 0.00 0.00 0.00 0.00 0.00 0.00 0.00 0.00 0.00 0.00 0.00 0.00 0.00 0.00 0.00 0.00 0.00 0.00 0.00 0.00 0.00 0.00 0.00 0.00 0.00 0.00 0.00 0.00 0.00 0.00 0.00 0.00 0.00 0.00 0.00 0.00
0.19 0.12 0.16 0.19 0.11 0.06 0.00 0.00 0.00 0.00 0.00 0.00 0.00 0.00 0.00 0.00 0.00 0.00 0.00 0.00 0.00 0.00 0.00 0.00 0.00 0.00 0.00 0.00 0.00 0.00 0.00 0.00 0.00 0.00 0.00 0.00 0.00 0.00 0.00 0.00 0.00 0.00 0.00 0.00
0.15 0.21 0.20 0.23 0.17 0.10 0.00 0.00 0.00 0.00 0.00 0.00 0.00 0.00 0.00 0.00 0.00 0.00 0.00 0.00 0.00 0.00 0.00 0.00 0.00 0.00 0.00 0.00 0.00 0.00 0.00 0.00 0.00 0.00 0.00 0.00 0.00 0.00 0.00 0.00 0.00 0.00 0.00 0.00
0.02 0.12 0.20 0.13 0.14 0.04 0.00 0.00 0.00 0.00 0.00 0.00 0.00 0.00 0.00 0.00 0.00 0.00 0.00 0.00 0.00 0.00 0.00 0.00 0.00 0.00 0.00 0.00 0.00 0.00 0.00 0.00 0.00 0.00 0.00 0.00 0.00 0.00 0.00 0.00 0.00 0.00 0.00 0.00
0.00 0.04 0.09 0.11 0.17 0.09 0.00 0.00 0.00 0.00 0.00 0.00 0.00 0.00 0.00 0.00 0.00 0.00 0.00 0.00 0.00 0.00 0.00 0.00 0.00 0.00 0.00 0.00 0.00 0.00 0.00 0.00 0.00 0.00 0.00 0.00 0.00 0.00 0.00 0.00 0.00 0.00 0.00 0.00
0.00 0.01 0.01 0.01 0.02 0.00 0.00 0.00 0.00 0.00 0.00 0.00 0.00 0.00 0.00 0.00 0.00 0.00 0.00 0.00 0.00 0.00 0.00 0.00 0.00 0.00 0.00 0.00 0.00 0.00 0.00 0.00 0.00 0.00 0.00 0.00 0.00 0.00 0.00 0.00 0.00 0.00 0.00 0.00
0.00 0.00 0.00 0.01 0.02 0.01 0.01 0.00 0.00 0.00 0.00 0.00 0.00 0.00 0.00 0.00 0.00 0.00 0.00 0.00 0.00 0.00 0.00 0.00 0.00 0.00 0.00 0.00 0.00 0.00 0.00 0.00 0.00 0.00 0.00 0.00 0.00 0.00 0.00 0.00 0.00 0.00 0.00 0.00
0.00 0.00 0.00 0.01 0.00 0.01 0.02 0.01 0.00 0.00 0.00 0.00 0.00 0.00 0.00 0.00 0.00 0.00 0.00 0.00 0.00 0.00 0.00 0.00 0.00 0.00 0.00 0.00 0.00 0.00 0.00 0.00 0.00 0.00 0.00 0.00 0.00 0.00 0.00 0.00 0.00 0.00 0.00 0.00
0.00 0.00 0.00 0.01 0.00 0.00 0.00 0.00 0.00 0.00 0.00 0.00 0.00 0.00 0.00 0.00 0.00 0.00 0.00 0.00 0.00 0.00 0.00 0.00 0.00 0.00 0.00 0.00 0.00 0.00 0.00 0.00 0.00 0.00 0.00 0.00 0.00 0.00 0.00 0.00 0.00 0.00 0.00 0.00
MSLP
1015.44 1015.46 1014.91 1014.67 1014.85 1014.58 1014.44 1014.57 1014.59 1014.07 1014.55 1015.07 1015.27 1015.33 1015.21 1015.49 1016.12 1016.60 1017.03 1017.77 1018.88 1019.82 1020.77 1021.57 1022.02 1022.31 1022.62 1022.90 1023.18 1023.44 1023.56 1023.67 1023.79 1024.03 1024.33 1024.94 1025.78 1026.38 1026.75 1027.02 1027.09 1027.07 1027.09 1027.25
1015.70 1015.00 1014.47 1014.52 1014.37 1014.51 1014.61 1014.76 1014.74 1014.54 1014.89 1015.33 1015.20 1014.88 1014.47 1014.70 1014.80 1015.11 1015.85 1016.89 1018.12 1019.61 1020.78 1021.55 1021.96 1022.09 1022.46 1022.83 1023.06 1023.34 1023.51 1023.68 1023.70 1023.85 1024.40 1025.15 1026.11 1027.04 1027.51 1027.85 1027.85 1027.81 1027.79 1027.88
1014.69 1014.32 1013.97 1014.43 1014.44 1014.71 1014.67 1014.78 1014.94 1015.18 1015.39 1015.58 1015.73 1015.06 1014.43 1013.68 1013.46 1014.17 1014.90 1015.92 1017.20 1018.72 1020.23 1021.29 1021.72 1022.03 1022.26 1022.68 1022.85 1023.01 1023.21 1023.45 1023.90 1024.13 1024.68 1025.46 1026.36 1027.35 1028.16 1028.63 1028.64 1028.59 1028.49 1028.56
1014.43 1014.09 1014.30 1014.37 1014.47 1014.94 1015.07 1014.83 1015.15 1015.54 1016.15 1016.17 1015.87 1014.70 1013.62 1012.96 1013.06 1013.58 1014.42 1015.54 1016.82 1018.25 1019.71 1020.91 1021.48 1022.00 1022.23 1022.69 1022.87 1023.11 1023.40 1023.67 1023.96 1024.18 1024.70 1025.31 1026.22 1027.35 1028.47 1028.88 1029.29 1029.26 1028.95 1028.95
1013.54 1013.66 1014.02 1014.27 1014.09 1014.72 1015.08 1015.04 1015.47 1015.92 1016.58 1016.73 1016.44 1015.85 1012.70 1012.67 1012.58 1013.02 1013.75 1015.14 1016.57 1017.87 1019.19 1020.50 1021.25 1021.89 1022.36 1023.01 1023.31 1023.48 1023.81 1024.17 1024.31 1024.45 1024.86 1025.65 1026.81 1027.72 1028.58 1029.25 1029.66 1029.98 1030.08 1029.83
1013.57 1014.03 1014.02 1013.94 1014.63 1014.87 1015.32 1015.98 1016.57 1017.01 1017.53 1017.06 1016.39 1015.88 1011.96 1011.93 1011.26 1011.57 1013.25 1014.89 1016.17 1017.65 1019.08 1020.30 1021.36 1021.95 1022.55 1023.17 1023.64 1023.94 1024.27 1024.52 1024.62 1024.84 1025.31 1026.05 1026.93 1027.80 1028.63 1029.30 1029.76 1030.09 1030.23 1030.38
1013.85 1013.76 1014.11 1014.26 1015.09 1015.56 1015.69 1016.62 1017.45 1018.05 1018.25 1016.68 1015.59 1015.03 1011.82 1011.07 1010.72 1011.27 1012.53 1014.27 1015.73 1017.17 1018.73 1020.08 1021.15 1021.94 1022.57 1023.07 1023.63 1024.08 1024.47 1024.86 1024.97 1025.19 1025.63 1026.21 1026.86 1027.53 1028.28 1028.99 1029.53 1030.34 1030.89 1031.19
1012.83 1013.03 1013.13 1013.62 1013.40 1014.50 1015.75 1016.16 1016.99 1017.56 1017.91 1017.03 1016.08 1014.01 1011.61 1011.27 1011.13 1011.22 1012.00 1013.85 1015.57 1017.02 1018.34 1019.65 1020.70 1021.40 1022.12 1022.76 1023.38 1023.90 1024.42 1024.74 1024.89 1025.20 1025.69 1026.27 1026.74 1027.28 1028.01 1028.73 1029.47 1030.21 1030.85 1031.33
1011.45 1011.71 1011.72 1012.80 1013.46 1014.15 1015.66 1016.07 1015.72 1017.15 1018.05 1017.63 1015.16 1012.90 1011.64 1011.59 1012.02 1012.35 1012.96 1014.05 1015.23 1016.60 1017.83 1019.14 1020.26 1021.00 1021.80 1022.53 1023.20 1023.82 1024.44 1024.88 1025.19 1025.53 1025.94 1026.52 1027.05 1027.63 1028.31 1029.04 1029.71 1030.29 1030.64 1031.04
1010.58 1011.59 1012.43 1013.58 1013.79 1014.28 1014.61 1014.91 1016.33 1017.30 1018.00 1016.83 1013.79 1012.37 1011.03 1011.59 1011.72 1012.62 1013.15 1013.59 1014.83 1016.29 1017.52 1018.67 1019.68 1020.59 1021.56 1022.40 1023.20 1023.91 1024.41 1024.82 1025.21 1025.62 1026.15 1026.71 1027.22 1027.79 1028.41 1029.06 1029.85 1030.37 1030.67 1031.12
1010.40 1011.34 1013.59 1013.81 1013.69 1013.29 1014.64 1014.60 1015.09 1015.60 1016.20 1015.40 1013.63 1010.53 1008.78 1009.17 1010.13 1011.46 1012.35 1013.16 1013.97 1015.22 1016.52 1017.83 1018.93 1019.96 1020.93 1021.92 1022.81 1023.66 1024.36 1024.81 1025.32 1025.70 1026.12 1026.58 1027.15 1027.84 1028.27 1029.08 1029.91 1030.44 1030.87 1031.17
1009.73 1011.02 1012.66 1012.71 1012.25 1012.50 1012.66 1013.12 1013.80 1014.47 1014.94 1014.23 1013.44 1008.00 1008.85 1009.03 1009.35 1010.49 1011.74 1012.76 1013.79 1014.89 1016.10 1017.30 1018.30 1019.38 1020.46 1021.39 1022.33 1023.12 1023.98 1024.70 1025.27 1025.68 1026.20 1026.84 1027.34 1027.82 1028.49 1029.29 1029.86 1030.27 1030.84 1031.27
1009.48 1010.96 1012.34 1012.49 1013.04 1013.12 1012.87 1012.63 1012.58 1013.04 1013.47 1012.00 1013.14 1008.16 1009.42 1009.73 1009.90 1010.66 1011.61 1012.53 1013.49 1014.61 1015.73 1016.93 1018.11 1018.98 1019.74 1020.68 1021.62 1022.55 1023.41 1024.26 1025.05 1025.75 1026.29 1027.05 1027.57 1027.83 1028.34 1028.96 1029.76 1030.22 1030.58 1031.01
1008.97 1010.41 1010.30 1009.66 1009.98 1010.65 1011.95 1011.77 1011.64 1012.16 1011.83 1011.65 1008.97 1009.07 1009.43 1009.64 1010.29 1010.91 1011.35 1012.11 1013.08 1013.98 1014.95 1015.93 1017.19 1018.08 1019.22 1020.08 1020.93 1021.92 1022.88 1023.72 1024.69 1025.53 1026.14 1026.72 1027.17 1027.55 1028.22 1028.85 1029.46 1029.89 1030.32 1031.19
1009.34 1010.23 1010.43 1009.46 1009.86 1010.13 1010.54 1010.61 1010.79 1010.88 1009.20 1010.27 1006.56 1007.91 1008.30 1008.62 1009.48 1009.88 1010.24 1011.65 1012.66 1013.44 1014.43 1015.21 1016.13 1017.04 1018.15 1019.37 1020.29 1021.33 1022.34 1023.22 1023.95 1024.79 1025.59 1026.22 1026.72 1027.50 1028.17 1028.83 1029.42 1029.97 1030.39 1030.99
1010.05 1010.32 1010.87 1009.68 1010.15 1010.07 1010.14 1010.22 1009.69 1009.40 1009.27 1008.69 1008.09 1005.66 1007.22 1007.31 1007.94 1009.08 1010.17 1011.19 1012.14 1012.70 1013.13 1013.88 1015.11 1016.28 1017.28 1018.34 1019.35 1020.45 1021.39 1022.37 1023.35 1024.28 1025.05 1025.62 1026.27 1027.03 1027.82 1028.41 1029.01 1029.51 1030.35 1030.82
1010.92 1011.07 1011.17 1009.59 1009.85 1010.17 1009.84 1006.79 1008.48 1008.32 1008.01 1007.64 1007.38 1003.83 1007.50 1007.58 1007.98 1008.61 1009.55 1010.37 1011.26 1012.07 1012.71 1013.41 1014.27 1015.19 1016.39 1017.46 1018.55 1019.52 1020.53 1021.69 1022.80 1023.67 1024.52 1025.13 1025.90 1026.60 1027.15 1027.84 1028.60 1029.41 1030.11 1030.71
1010.19 1010.79 1010.91 1009.72 1009.78 1008.38 1005.00 1005.16 1006.11 1006.59 1006.09 1006.78 1006.46 1006.24 1006.93 1007.32 1007.45 1007.71 1008.18 1008.95 1010.07 1011.07 1012.27 1013.29 1014.17 1014.97 1016.07 1016.93 1018.03 1019.17 1020.27 1021.38 1022.31 1023.19 1023.97 1024.72 1025.31 1026.10 1026.91 1027.71 1028.40 1029.08 1029.78 1030.32
1009.54 1010.12 1009.83 1009.28 1008.19 1006.52 1005.67 1006.06 1005.92 1005.91 1004.69 1005.35 1005.69 1006.35 1007.13 1007.63 1008.26 1008.57 1008.82 1009.28 1009.88 1010.94 1011.98 1012.81 1013.07 1014.65 1015.88 1016.90 1017.81 1018.81 1019.92 1020.81 1021.78 1022.54 1023.29 1023.98 1024.84 1025.87 1026.74 1027.40 1027.96 1028.71 1029.38 1029.85
1009.60 1009.35 1009.14 1008.79 1007.73 1006.75 1006.04 1005.82 1005.62 1005.75 1005.64 1005.24 1005.34 1006.10 1007.24 1008.28 1009.11 1009.03 1009.41 1010.01 1010.64 1011.20 1011.84 1012.16 1013.68 1014.82 1015.83 1016.72 1017.57 1018.66 1019.70 1020.59 1021.29 1021.87 1022.45 1023.38 1024.24 1024.95 1025.78 1026.64 1027.55 1028.20 1028.67 1029.20
1009.83 1009.45 1008.56 1008.14 1007.52 1006.97 1006.71 1006.66 1006.44 1007.01 1006.47 1006.04 1005.98 1006.49 1007.47 1008.14 1008.27 1008.68 1009.36 1010.02 1010.14 1010.83 1011.96 1013.12 1014.10 1015.06 1015.92 1016.69 1017.64 1018.95 1019.74 1020.25 1020.28 1021.35 1022.13 1023.02 1023.64 1024.22 1024.93 1025.92 1026.89 1027.54 1028.15 1028.86
1007.83 1008.53 1008.47 1008.65 1008.24 1007.84 1007.25 1007.73 1007.77 1007.65 1007.25 1007.08 1007.17 1007.51 1008.24 1008.71 1009.19 1009.75 1010.26 1010.97 1011.74 1012.64 1013.38 1014.07 1014.97 1015.91 1016.72 1017.42 1018.25 1019.42 1019.91 1019.72 1020.45 1021.24 1021.98 1022.67 1023.27 1023.91 1024.62 1025.41 1026.41 1027.19 1027.90 1028.72
1007.32 1006.68 1007.09 1007.83 1007.79 1007.72 1007.90 1008.16 1008.08 1008.07 1008.09 1008.20 1008.14 1008.39 1008.88 1009.63 1010.26 1010.80 1011.45 1012.16 1013.27 1013.67 1014.35 1015.11 1015.88 1016.73 1017.39 1017.83 1018.39 1019.46 1019.45 1019.94 1020.67 1021.51 1022.17 1022.68 1023.34 1023.90 1024.38 1025.22 1026.13 1026.94 1027.63 1028.07
1006.85 1006.79 1007.20 1007.94 1008.41 1008.40 1008.37 1008.42 1008.21 1008.28 1008.54 1008.74 1008.91 1009.03 1009.38 1010.15 1010.87 1011.54 1012.06 1012.96 1013.88 1014.37 1014.92 1015.51 1016.26 1016.99 1017.86 1018.25 1018.78 1019.16 1019.49 1020.01 1020.83 1021.56 1022.44 1022.97 1023.54 1024.24 1024.64 1025.08 1025.64 1026.37 1026.98 1027.29
1007.01 1007.01 1007.45 1008.60 1008.84 1008.98 1008.76 1008.81 1008.76 1008.62 1008.69 1008.88 1009.14 1009.58 1010.14 1010.66 1011.46 1011.94 1012.85 1013.72 1014.36 1014.88 1015.43 1015.92 1016.41 1017.07 1017.84 1018.46 1019.21 1019.57 1019.88 1020.37 1021.13 1021.78 1022.59 1023.22 1023.65 1024.35 1025.00 1025.21 1025.35 1025.66 1025.86 1026.07
1006.81 1006.86 1007.30 1007.39 1007.63 1007.92 1007.98 1008.05 1008.34 1008.90 1009.13 1009.43 1009.79 1010.23 1010.49 1010.88 1011.76 1012.66 1013.53 1014.10 1014.79 1015.46 1015.90 1016.50 1017.01 1017.76 1018.46 1019.07 1019.93 1020.34 1020.30 1020.58 1021.41 1022.19 1022.80 1023.38 1024.00 1024.58 1025.00 1025.41 1025.53 1025.04 1025.19 1025.39
Thickness
5669 5659 5660 5670 5671 5676 5673 5667 5662 5684 5673 5670 5665 5668 5677 5676 5673 5673 5676 5671 5665 5661 5654 5648 5645 5643 5640 5638 5636 5635 5634 5632 5631 5629 5627 5622 5615 5610 5607 5604 5602 5602 5600 5597
5653 5651 5672 5676 5676 5670 5664 5656 5655 5669 5660 5659 5661 5662 5677 5674 5679 5681 5680 5673 5666 5654 5645 5642 5638 5639 5637 5633 5632 5630 5628 5627 5627 5625 5620 5613 5606 5600 5596 5592 5590 5589 5587 5585
5650 5665 5674 5665 5665 5655 5656 5650 5650 5649 5651 5651 5644 5642 5660 5679 5685 5683 5683 5677 5668 5656 5643 5635 5632 5631 5631 5628 5627 5625 5623 5620 5616 5614 5609 5603 5597 5590 5583 5579 5577 5575 5573 5571
5649 5665 5658 5657 5652 5650 5636 5657 5650 5647 5634 5618 5639 5613 5663 5678 5678 5677 5676 5667 5660 5653 5643 5631 5627 5623 5621 5618 5617 5616 5613 5610 5608 5606 5602 5598 5592 5583 5573 5569 5565 5563 5563 5560
5649 5649 5643 5641 5652 5648 5642 5648 5645 5641 5625 5616 5624 5609 5654 5675 5677 5674 5671 5661 5653 5647 5638 5627 5620 5617 5613 5609 5606 5604 5602 5599 5598 5597 5593 5587 5578 5571 5563 5557 5551 5546 5543 5542
5644 5642 5645 5648 5640 5644 5636 5630 5626 5621 5613 5587 5621 5622 5642 5666 5677 5684 5667 5656 5648 5638 5627 5618 5612 5607 5602 5599 5595 5593 5590 5588 5588 5586 5582 5575 5568 5561 5552 5545 5539 5535 5532 5527
5628 5629 5633 5637 5623 5624 5627 5613 5591 5580 5575 5589 5630 5617 5652 5668 5678 5680 5666 5653 5644 5633 5622 5612 5603 5598 5595 5592 5588 5585 5581 5579 5577 5575 5571 5566 5560 5553 5545 5537 5530 5521 5513 5507
5615 5612 5629 5630 5637 5617 5602 5608 5583 5577 5582 5591 5597 5605 5641 5651 5657 5665 5662 5648 5638 5626 5618 5607 5599 5597 5592 5587 5582 5578 5573 5571 5569 5566 5562 5556 5551 5545 5537 5528 5519 5509 5500 5493
5623 5624 5635 5630 5629 5620 5597 5590 5622 5588 5546 5560 5602 5626 5651 5638 5642 5646 5641 5637 5632 5622 5614 5604 5596 5592 5585 5579 5574 5569 5564 5560 5557 5554 5549 5543 5537 5530 5521 5511 5502 5495 5489 5481
5629 5616 5613 5604 5614 5610 5604 5609 5581 5575 5555 5561 5604 5613 5632 5628 5634 5628 5633 5634 5628 5617 5609 5600 5592 5586 5577 5571 5565 5559 5554 5551 5546 5541 5535 5528 5522 5515 5506 5497 5487 5480 5474 5466
5620 5610 5582 5591 5592 5605 5589 5586 5590 5592 5573 5566 5581 5619 5659 5654 5644 5633 5634 5631 5627 5617 5609 5598 5590 5581 5572 5565 5557 5550 5544 5539 5534 5529 5523 5517 5510 5501 5494 5483 5472 5463 5455 5448
5614 5597 5571 5583 5604 5602 5602 5593 5590 5579 5572 5582 5577 5641 5642 5641 5639 5634 5628 5624 5618 5608 5598 5590 5584 5575 5567 5559 5550 5543 5534 5527 5520 5515 5508 5501 5493 5486 5476 5465 5456 5449 5439 5429
5600 5575 5564 5576 5575 5573 5576 5588 5596 5595 5574 5594 5568 5630 5616 5623 5626 5620 5617 5611 5605 5595 5587 5580 5571 5564 5558 5550 5542 5533 5524 5515 5506 5498 5491 5482 5474 5469 5461 5452 5441 5432 5424 5416
5594 5570 5580 5597 5603 5587 5568 5577 5586 5581 5574 5575 5607 5616 5609 5611 5605 5605 5603 5601 5594 5587 5583 5576 5565 5556 5547 5540 5532 5522 5512 5502 5491 5482 5475 5469 5462 5455 5446 5437 5426 5417 5408 5396
5576 5566 5570 5590 5594 5587 5575 5574 5576 5573 5599 5576 5626 5608 5615 5615 5601 5604 5605 5591 5585 5581 5573 5567 5559 5550 5540 5529 5520 5510 5499 5489 5481 5473 5465 5458 5449 5439 5429 5418 5407 5396 5388 5377
5555 5555 5556 5570 5566 5573 5568 5568 5569 5575 5581 5586 5598 5618 5613 5621 5611 5598 5593 5584 5577 5573 5570 5564 5553 5541 5532 5522 5512 5500 5492 5480 5470 5461 5453 5444 5435 5425 5412 5401 5392 5384 5371 5359
5533 5533 5532 5559 5555 5552 5545 5588 5575 5577 5580 5586 5581 5633 5597 5600 5594 5588 5580 5578 5571 5565 5560 5554 5545 5537 5524 5514 5503 5493 5483 5470 5459 5448 5438 5430 5420 5409 5399 5389 5378 5365 5353 5341
5523 5524 5527 5549 5539 5544 5599 5595 5586 5580 5591 5583 5590 5588 5579 5587 5591 5584 5584 5578 5566 5559 5548 5538 5530 5524 5511 5502 5491 5481 5467 5457 5446 5436 5427 5416 5408 5396 5384 5373 5362 5350 5336 5325
5522 5517 5529 5538 5547 5563 5579 5560 5565 5570 5596 5589 5589 5591 5565 5558 5559 5565 5560 5560 5553 5540 5531 5526 5523 5510 5496 5487 5477 5466 5453 5445 5435 5426 5415 5404 5392 5380 5368 5357 5345 5333 5320 5309
5490 5508 5519 5512 5535 5547 5550 5546 5553 5562 5567 5573 5579 5575 5540 5537 5544 5543 5534 5529 5526 5521 5515 5512 5499 5489 5480 5470 5461 5451 5440 5430 5422 5413 5402 5390 5380 5370 5357 5344 5329 5317 5306 5297
5480 5486 5505 5519 5524 5521 5511 5517 5532 5526 5551 5523 5531 5532 5527 5533 5542 5531 5516 5515 5514 5507 5497 5487 5479 5472 5463 5454 5444 5432 5422 5417 5411 5397 5386 5375 5364 5355 5344 5330 5316 5305 5294 5281
5495 5489 5489 5494 5505 5515 5506 5507 5522 5508 5505 5509 5515 5513 5509 5503 5501 5498 5495 5488 5482 5475 5468 5463 5455 5448 5440 5432 5424 5411 5405 5400 5388 5377 5367 5358 5349 5339 5328 5316 5301 5289 5277 5264
5491 5498 5500 5499 5503 5477 5480 5482 5485 5487 5484 5496 5498 5494 5488 5481 5482 5475 5469 5463 5454 5450 5444 5437 5430 5422 5416 5409 5404 5392 5386 5377 5367 5358 5349 5340 5329 5321 5312 5299 5285 5272 5261 5252
5461 5467 5468 5469 5458 5460 5465 5467 5468 5473 5477 5474 5474 5472 5469 5465 5457 5454 5449 5443 5437 5427 5422 5415 5410 5401 5392 5384 5381 5376 5368 5359 5350 5341 5328 5320 5311 5300 5291 5282 5271 5259 5248 5240
5447 5449 5443 5424 5436 5437 5446 5445 5448 5459 5459 5460 5456 5454 5450 5443 5440 5437 5426 5420 5416 5411 5403 5399 5394 5385 5376 5367 5360 5354 5347 5339 5330 5321 5309 5300 5291 5282 5270 5262 5255 5247 5239 5230
5430 5438 5439 5443 5438 5444 5445 5444 5441 5438 5441 5439 5438 5434 5432 5429 5423 5416 5406 5401 5396 5389 5382 5377 5370 5361 5352 5347 5337 5329 5325 5320 5312 5300 5291 5281 5272 5262 5253 5243 5235 5234 5227 5219